User: anonymous   Login
Location: Newark
(45.5000°N, 11.4167°E)
Time: 08:00:39
(UTC+00:00)
Language:

Vanguard 2 - Orbit

View from above orbital plane
View from above orbital plane
View from above satellite
View from above satellite

Ground track
Ground track

The orbit data is extracted from the following two-line orbital elements,

1    11U 59001A   19233.88269611 -.00000078 +00000-0 -45067-4 0  9999
2    11 032.8698 103.8187 1467538 354.6929 003.9517 11.85609735239295
Epoch (UTC): 21 August 2019 21:11:04
Eccentricity: 0.1467538
inclination: 32.8698°
perigee height: 554 km
apogee height: 2938 km
right ascension of ascending node: 103.8187°
argument of perigee: 354.6929°
revolutions per day: 11.85609735
mean anomaly at epoch: 3.9517°
orbit number at epoch: 23929

The dashed part of the orbit path shows where the satellite is in the earth's shadow,  

DLR